Regional Weather Roundup
Issued by NWS New Orleans/Baton Rouge, LA

Home | Current Version | Previous Version | Text Only | Print | Product List | Glossary On
Versions: 1 2 3 4 5 6 7 8 9 10 11 12 13 14 15 16 17 18 19 20 21 22 23 24 25 26 27 28 29 30 31 32 33 34 35 36 37 38 39 40 41 42 43 44 45 46 47 48 49 50
000
ASUS44 KLIX 220913
RWRLIX
NEW ORLEANS REGIONAL WEATHER ROUNDUP
NATIONAL WEATHER SERVICE NEW ORLEANS LA
400 AM CDT TUE AUG 22 2017

NOTE: "FAIR" INDICATES FEW OR NO CLOUDS BELOW 12,000 FEET WITH NO
      SIGNIFICANT WEATHER AND/OR OBSTRUCTIONS TO VISIBILITY.
      SKY/WX - SKY CONDITION AND SIGNIFICANT WEATHER.
      TMP - AIR TEMPERATURE.     DP    - DEWPOINT TEMPERATURE.
      RH  - RELATIVE HUMIDITY.   PRES  - PRESSURE.
      HI  - HEAT INDEX.          WCI   - WIND CHILL INDEX.

*  THESE STATIONS ARE NOT NWS OR FAA STATIONS AND ARE NOT UNDER
   NWS QUALITY CONTROL.

LAZ038-040-048-061>063-065>067-069-221000-
SOUTHEAST LOUISIANA

CITY           SKY/WX    TMP DP  RH WIND       PRES   REMARKS
N.O. INTL ARPT CLOUDY    80  75  84 CALM      30.03S
N.O. LAKEFRONT PTCLDY    82  77  84 E5        30.04S
N.O. DOWNTOWN*   N/A     82  76  81 NE6       30.04F
RESERVE*         N/A     78  75  92 CALM      30.04S FOG
SLIDELL        CLEAR     73  72  96 CALM      30.03F
BATON ROUGE    CLEAR     73  72  96 NE3       30.05S
BOOTHVILLE     CLEAR     82  78  88 CALM      30.03F
BELLE CHASSE   NOT AVBL
BOGALUSA*        N/A     73  70  90 CALM      30.07S
GALLIANO*      SUNNY     76  73  92 CALM      30.03S FOG
NEW ROADS*       N/A     73  73  97 CALM      30.05F
GONZALES*        N/A     74  73  97 CALM      30.04S
HAMMOND*       CLEAR     72  70  94 CALM      30.05S
HOUMA*         NOT AVBL
PORT FOURCHON* MOSUNNY   84  75  74 E3        30.02S

$$

MSZ070-080>082-221000-
SOUTHERN MISSISSIPPI

CITY           SKY/WX    TMP DP  RH WIND       PRES   REMARKS
MCCOMB         PTCLDY    74  71  91 CALM      30.07F
GULFPORT       CLEAR     75  74  96 CALM      30.03F
BILOXI         CLEAR     75  73  93 NE5       30.04S
PASCAGOULA     PTCLDY    74  71  91 CALM      30.04F

$$

COASTAL OBSERVATIONS
LAKE AND NEARSHORE STATIONS

STATION/POSITION TIME  TEMP    WIND        PRES    WAVE
                       AIR SEA DIR/SP/G            HT/PER
                 (UTC) (F)     (DEG/KT/KT) (MB)    (FT/S)
PASCAGOULA       0848   76      10/  4/  5 1016.8
WAVELAND YACHT   0848   78 87   50/  3/  4 1017.1
GRAND ISLE       0848   84 88  140/  4/  7 1016.9
SOUTHWEST PASS   0848   85     130/  4/  7   N/A
NEW CANAL        0848   80 88   CALM  /  2 1016.9
SHELL BEACH      0848   83 90   30/  2/  3 1017.1

OFFSHORE STATIONS

STATION/POSITION TIME  TEMP    WIND        PRES    WAVE
                       AIR SEA DIR/SP/G            HT/PER
                 (UTC) (F)     (DEG/KT/KT) (MB)    (FT/S)
64 S DAUPHIN ISL 0850   85 87  110/  8/ 10 1016.6    3/ 6

$$




USA.gov is the U.S. government's official web portal to all federal, state and local government web resources and services.